Home   Weather   Ilanz   Past weeks

Flag for Switzerland Past Weather in Ilanz, Graubünden, Switzerland — Yesterday and Last 2 Weeks

Now
13 °F

Sunny.


Feels Like: 6 °F
Forecast: 14 / 36 °F
Wind: 5 mph from North

Location: Chur

Current Time: Jan 20, 2017 at 11:16:12 am

Latest Report: Jan 20, 2017 at 10:00 am


Visibility: 19 mi

Pressure: 30.60 "Hg (27.92 "Hg at 703m altitude)

Humidity: 87%

Dew Point: 10 °F

Location of IlanzLocation

Past Weather in Ilanz — Graph

°F

Ilanz Temperature Yesterday

Maximum temperature yesterday: 25 °F (at 3:00 pm)
Minimum temperature yesterday: 10 °F (at 3:00 am)
Average temperature yesterday: 16 °F

High & Low Weather Summary for the Past Weeks

 TemperatureHumidityPressure
High42 °F (Jan 13, 12:00 am)95% (Jan 14, 2:00 pm)30.78 "Hg (Jan 14, 2:00 pm)
Low9 °F (Jan 18, 8:00 am)52% (Jan 6, 3:00 pm)29.54 "Hg (Jan 13, 2:00 am)
Average25 °F78%30.29 "Hg
* Reported Jan 5 9:00 am — Jan 20 9:00 am, Ilanz, Weather by CustomWeather, © 2017

Note: Actual official high and low records may vary slightly from our data, if they occured in-between our weather recording intervals... More about our weather records

Advertising

Ilanz Weather History for the Previous 24 Hours

Scroll right to see more
 ConditionsComfort  
Time TempWeatherWind HumidityBarometerVisibility
9:00 am
Fri, Jan 20
14 °FCold.3 mph87%30.58 "HgN/A
8:00 am11 °FCold.1 mph91%30.58 "HgN/A
7:00 am11 °FFog.2 mph94%30.58 "Hg5 mi
6:00 am14 °FCold.5 mph87%30.57 "HgN/A
5:00 am17 °FCold.6 mph87%30.54 "HgN/A
4:00 am18 °FClear.1 mph90%30.53 "Hg11 mi
3:00 am16 °FCold.5 mph88%30.55 "HgN/A
2:00 am17 °FCold.1 mph93%30.55 "HgN/A
1:00 am16 °FFog.1 mph92%30.57 "Hg7 mi
12:00 am13 °FCold.1 mph90%30.59 "HgN/A
11:00 pm
Thu, Jan 19
13 °FCold.No wind90%30.60 "HgN/A
10:00 pm11 °FFog.1 mph87%30.61 "Hg7 mi
9:00 pm15 °FCold.1 mph90%30.60 "HgN/A
8:00 pm13 °FCold.No wind87%30.60 "HgN/A
7:00 pm14 °FClear.No wind84%30.59 "Hg19 mi
6:00 pm17 °FCold.1 mph81%30.57 "HgN/A
5:00 pm22 °FCold.3 mph74%30.53 "HgN/A
4:00 pm24 °FSunny.7 mph70%30.51 "Hg19 mi
3:00 pm25 °FChilly.9 mph67%30.50 "HgN/A
2:00 pm24 °FCold.10 mph65%30.50 "HgN/A
1:00 pm24 °FSunny.10 mph66%30.51 "Hg16 mi
12:00 pm24 °FCold.3 mph69%30.52 "HgN/A
11:00 am19 °FCold.3 mph77%30.56 "HgN/A
Weather by CustomWeather, © 2017

See weather overviewHow to use our weather pages